Regional Weather Roundup
Issued by NWS

Home | Current Version | Previous Version | Graphics & Text | Print | Product List | Glossary On
Versions: 1 2 3 4 5 6 7 8 9 10 11 12 13 14 15 16 17 18 19 20 21 22 23 24 25 26 27 28 29 30 31 32 33 34 35 36 37 38 39 40 41 42 43 44 45 46 47 48 49 50
000
ASUS45 KTFX 240819
RWRMT
MONTANA HOURLY WEATHER ROUNDUP
NATIONAL WEATHER SERVICE GREAT FALLS MT
219 AM MDT FRI OCT 24 2014

NOTE: "FAIR" INDICATES FEW OR NO CLOUDS BELOW 12000 FEET WITH NO
SIGNIFICANT WEATHER AND/OR OBSTRUCTIONS TO VISIBILITY.

* THESE STATIONS ARE NOT UNDER NWS QUALITY CONTROL. THEY DO NOT
   REPORT WEATHER SUCH AS PRECIPITATION OR FOG.

MTZ001>007-043-240900-
WEST OF THE DIVIDE
CITY           SKY/WX    TMP DP  RH WIND       PRES   REMARKS
KALISPELL      CLOUDY    46  37  71 SW14      29.96R
MISSOULA       CLOUDY    48  39  71 CALM      30.04R
BUTTE          MOCLDY    45  37  74 NE5       30.02S
MULLAN PASS    CLOUDY    34  30  85 VRB7      30.01R WCI  28
* ESSEX        N/A       41  40  96 S2         N/A
* LINCOLN      N/A       43  39  86 S4         N/A
* POLSON       N/A       42  37  83 S3G10      N/A
* RONAN APT    CLOUDY    45  43  93 N/A        N/A
* SEELEY LAKE  N/A       42  41  96 N/A        N/A
* THOMP F APT  CLOUDY    44  34  68 SE6G14     N/A
$$

MTZ008-052>055-240900-
SOUTHWEST MONTANA
CITY           SKY/WX    TMP DP  RH WIND       PRES   REMARKS
BOZEMAN        CLOUDY    57  36  46 W16G25    29.96R
DILLON         CLOUDY    50  37  61 S5        30.02R
W YELLOWSTONE  CLOUDY    45  32  60 SW10G29   30.10S
* THREE FORKS  MOCLDY    50  50 100 N/A        N/A
* BOULDER HILL N/A       45  35  68 S7         N/A
* MONIDA PASS  N/A       41  35  79 S21G27     N/A
* RAYNOLDS PAS N/A       46  31  56 S9G18      N/A
* WHITEHALL    N/A       52  40  64 W7G14      N/A
* WISE RIVER   N/A       44  39  83 W6G12      N/A
$$

MTZ009>010-012-014-046-048-049-054-240900-
EAST SLOPES AND CENTRAL MONTANA
CITY           SKY/WX    TMP DP  RH WIND       PRES   REMARKS
CUT BANK       CLOUDY    46  34  63 W37G46    29.81R
GREAT FALLS    CLEAR     48  36  63 SW18      29.87R
HELENA         CLOUDY    52  37  57 W8        29.96S
MALMSTROM AFB  CLEAR     50  36  59 SW21G29   29.89S
* CONRAD       PTCLDY    50  36  59 S17G22     N/A
* DEARBORN     N/A       52  36  55 S4G9       N/A
* EAST GLACIER N/A       37  35  92 W20G27     N/A   WCI  27
* MONARCH      N/A       45  29  54 SW12       N/A
* PENDROY      N/A       47  29  50 W23G28     N/A
* ROGERS PASS  N/A       40  37  89 SE13G22    N/A   WCI  32
* SAINT MARY   N/A       40  36  86 SW7G15     N/A   WCI  35
* SWEET GRASS  N/A       45  34  65 SW17G24    N/A
* WHITE SULPH  N/A       44  39  83 NW10G18    N/A
$$

MTZ011-013-016-021-035-040-045-047-050-051-240900-
NORTH CENTRAL MONTANA
CITY           SKY/WX    TMP DP  RH WIND       PRES   REMARKS
HAVRE          MOCLDY    54  39  57 SW16      29.81R
LEWISTOWN      PTCLDY    52  39  61 W16       29.91R
* CHINOOK      CLOUDY    55  39  55 W10G16    29.81R
* FORT BENTON  PTCLDY    54  37  53 S7        29.88R
* CHESTER      N/A       48  36  63 SW6G16     N/A
* DENTON       N/A       53  38  57 SW17G22    N/A
* GEYSER       N/A       49  32  52 SW13G19    N/A
* JUDITH GAP   N/A       46  37  71 NE7        N/A
* LOMA         N/A       55  39  55 SW16G23    N/A
$$

MTZ017>020-022>027-061-062-240900-
NORTHEAST MONTANA
CITY           SKY/WX    TMP DP  RH WIND       PRES   REMARKS
GLASGOW        LGT RAIN  48  41  77 E3        29.80R
GLENDIVE       MOCLDY    45  36  71 S5        29.85R
JORDAN         CLOUDY    50  36  59 W7        29.83R
SIDNEY         PTCLDY    41  36  82 S7        29.84R
WOLF POINT     MOCLDY    43  37  79 SW5       29.80R
* BEAVER HILL  N/A       50  32  50 S9         N/A
* CIRCLE       N/A       49  38  66 N/A        N/A
* LINDSAY DVD  N/A       51  36  57 SW9        N/A
* NAVAJO       N/A       53  38  57 W12        N/A
$$

MTZ028>042-056>058-240900-
SOUTHCENTRAL AND SOUTHEAST MONTANA
CITY           SKY/WX    TMP DP  RH WIND       PRES   REMARKS
BAKER          MOCLDY    43  34  71 NW3       29.87S
BILLINGS       MOCLDY    61  28  29 W14       29.89S
LIVINGSTON     CLOUDY    61  32  34 SW29G40   29.93R
MILES CITY     CLOUDY    45  34  65 SE10      29.84F
* LAUREL APT   MOCLDY    52  27  38 N/A        N/A
* ROUNDUP APT  MOCLDY    52  30  43 SW6        N/A
* ALZADA       N/A       43  30  60 NE2        N/A
* HYSHAM       N/A       59  28  31 NW4        N/A
* LAME DEER    N/A       56  27  33 SW4        N/A
* REED POINT   N/A       40  32  73 N/A        N/A
* ROSCOE HILL  N/A       59  22  24 SW11G37    N/A
$$

REGIONAL REPORTS...DAKOTAS
CITY           SKY/WX    TMP DP  RH WIND       PRES   REMARKS
WILLISTON      CLOUDY    45  36  71 S3        29.79S
DICKINSON      CLOUDY    46  32  58 W6        29.82R
BEACH          N/A       43  32  65 S3        29.85R
CROSBY         CLEAR     45  37  74 SW12      29.75S
TIOGA          CLEAR     45  36  71 SW6       29.80S
BISMARCK       CLOUDY    41  32  70 SE3       29.81F
GRAND FORKS    MOCLDY    43  37  79 S6        29.74F
FARGO          MOCLDY    52  43  72 S9        29.81S
BUFFALO SD     CLOUDY    50  27  41 W8        29.82R
RAPID CITY     CLOUDY    46  34  63 NW6       29.91F
$$

REGIONAL REPORTS...WYOMING/IDAHO/WASHINGTON
CITY           SKY/WX    TMP DP  RH WIND       PRES   REMARKS
GILLETTE       CLOUDY    54  27  35 SW13      29.94S
SHERIDAN       MOCLDY    43  30  60 S8        29.92F
CODY           CLOUDY    57  28  33 E7        29.99R
YELLOWSTONE LA MOCLDY    39  28  65 CALM      30.19S
SALMON         CLOUDY    50  41  71 CALM      30.02R
MULLAN PASS    CLOUDY    34  30  85 VRB7      30.01S WCI  28
SAND POINT     CLOUDY    46  45  96 SW3       29.99R
SPOKANE        CLOUDY    45  43  93 SW17      29.99R
$$

REGIONAL REPORTS...ALBERTA
CITY           SKY/WX    TMP DP  RH WIND       PRES   REMARKS
CALGARY        FAIR      46  25  44 W14       29.70R
LETHBRIDGE     CLEAR     46  32  58 W23G32    29.75R
MEDICINE HAT   CLEAR     50  37  61 SW17G26   29.70R
EDMONTON       PTCLDY    39  30  70 W13       29.67R WCI  31
WATERTON GATE  N/A       43  30  60 SW13G20    N/A
CARDSTON       N/A       41  34  76 SW8        N/A
MILK RIVER     N/A       46  36  68 W23G33     N/A
$$

REGIONAL REPORTS...SASKATCHEWAN
CITY           SKY/WX    TMP DP  RH WIND       PRES   REMARKS
SWIFT CURRENT  MOCLDY    52  39  61 SW17      29.66S
REGINA         MOCLDY    45  41  86 SW7       29.68R
VAL MARIE      N/A       52  39  61 W17        N/A
ASSINIBOIA     N/A       54  41  62 SW16       N/A
CORONACH       N/A       52  39  61 SW13       N/A

$$




USA.gov is the U.S. government's official web portal to all federal, state and local government web resources and services.